Year,Month,Day,Hour,Minute,Value (Times are PST for insolation in W/m^2)
2021,11,06,00,00,0.00
2021,11,06,00,01,0.00
2021,11,06,00,02,0.00
2021,11,06,00,03,0.00
2021,11,06,00,04,0.00
2021,11,06,00,05,0.00
2021,11,06,00,06,0.00
2021,11,06,00,07,0.00
2021,11,06,00,08,0.00
2021,11,06,00,09,0.00
2021,11,06,00,10,0.00
2021,11,06,00,11,0.00
2021,11,06,00,12,0.00
2021,11,06,00,13,0.00
2021,11,06,00,14,0.00
2021,11,06,00,15,0.00
2021,11,06,00,16,0.00
2021,11,06,00,17,0.00
2021,11,06,00,18,0.00
2021,11,06,00,19,0.00
2021,11,06,00,20,0.00
2021,11,06,00,21,0.00
2021,11,06,00,22,0.00
2021,11,06,00,23,0.00
2021,11,06,00,24,0.00
2021,11,06,00,25,0.00
2021,11,06,00,26,0.00
2021,11,06,00,27,0.00
2021,11,06,00,28,0.00
2021,11,06,00,29,0.00
2021,11,06,00,30,0.00
2021,11,06,00,31,0.00
2021,11,06,00,32,0.00
2021,11,06,00,33,0.00
2021,11,06,00,34,0.00
2021,11,06,00,35,0.00
2021,11,06,00,36,0.00
2021,11,06,00,37,0.00
2021,11,06,00,38,0.00
2021,11,06,00,39,0.00
2021,11,06,00,40,0.00
2021,11,06,00,41,0.00
2021,11,06,00,42,0.00
2021,11,06,00,43,0.00
2021,11,06,00,44,0.00
2021,11,06,00,45,0.00
2021,11,06,00,46,0.00
2021,11,06,00,47,0.00
2021,11,06,00,48,0.00
2021,11,06,00,49,0.00
2021,11,06,00,50,0.00
2021,11,06,00,51,0.00
2021,11,06,00,52,0.00
2021,11,06,00,53,0.00
2021,11,06,00,54,0.00
2021,11,06,00,55,0.00
2021,11,06,00,56,0.00
2021,11,06,00,57,0.00
2021,11,06,00,58,0.00
2021,11,06,00,59,0.00
2021,11,06,01,00,0.00
2021,11,06,01,01,0.00
2021,11,06,01,02,0.00
2021,11,06,01,03,0.00
2021,11,06,01,04,0.00
2021,11,06,01,05,0.00
2021,11,06,01,06,0.00
2021,11,06,01,07,0.00
2021,11,06,01,08,0.00
2021,11,06,01,09,0.00
2021,11,06,01,10,0.00
2021,11,06,01,11,0.00
2021,11,06,01,12,0.00
2021,11,06,01,13,0.00
2021,11,06,01,14,0.00
2021,11,06,01,15,0.00
2021,11,06,01,16,0.00
2021,11,06,01,17,0.00
2021,11,06,01,18,0.00
2021,11,06,01,19,0.00
2021,11,06,01,20,0.00
2021,11,06,01,21,0.00
2021,11,06,01,22,0.00
2021,11,06,01,23,0.00
2021,11,06,01,24,0.00
2021,11,06,01,25,0.00
2021,11,06,01,26,0.00
2021,11,06,01,27,0.00
2021,11,06,01,28,0.00
2021,11,06,01,29,0.00
2021,11,06,01,30,0.00
2021,11,06,01,31,0.00
2021,11,06,01,32,0.00
2021,11,06,01,33,0.00
2021,11,06,01,34,0.00
2021,11,06,01,35,0.00
2021,11,06,01,36,0.00
2021,11,06,01,37,0.00
2021,11,06,01,38,0.00
2021,11,06,01,39,0.00
2021,11,06,01,40,0.00
2021,11,06,01,41,0.00
2021,11,06,01,42,0.00
2021,11,06,01,43,0.00
2021,11,06,01,44,0.00
2021,11,06,01,45,0.00
2021,11,06,01,46,0.00
2021,11,06,01,47,0.00
2021,11,06,01,48,0.00
2021,11,06,01,49,0.00
2021,11,06,01,50,0.00
2021,11,06,01,51,0.00
2021,11,06,01,52,0.00
2021,11,06,01,53,0.00
2021,11,06,01,54,0.00
2021,11,06,01,55,0.00
2021,11,06,01,56,0.00
2021,11,06,01,57,0.00
2021,11,06,01,58,0.00
2021,11,06,01,59,0.00
2021,11,06,02,00,0.00
2021,11,06,02,01,0.00
2021,11,06,02,02,0.00
2021,11,06,02,03,0.00
2021,11,06,02,04,0.00
2021,11,06,02,05,0.00
2021,11,06,02,06,0.00
2021,11,06,02,07,0.00
2021,11,06,02,08,0.00
2021,11,06,02,09,0.00
2021,11,06,02,10,0.00
2021,11,06,02,11,0.00
2021,11,06,02,12,0.00
2021,11,06,02,13,0.00
2021,11,06,02,14,0.00
2021,11,06,02,15,0.00
2021,11,06,02,16,0.00
2021,11,06,02,17,0.00
2021,11,06,02,18,0.00
2021,11,06,02,19,0.00
2021,11,06,02,20,0.00
2021,11,06,02,21,0.00
2021,11,06,02,22,0.00
2021,11,06,02,23,0.00
2021,11,06,02,24,0.00
2021,11,06,02,25,0.00
2021,11,06,02,26,0.00
2021,11,06,02,27,0.00
2021,11,06,02,28,0.00
2021,11,06,02,29,0.00
2021,11,06,02,30,0.00
2021,11,06,02,31,0.00
2021,11,06,02,32,0.00
2021,11,06,02,33,0.00
2021,11,06,02,34,0.00
2021,11,06,02,35,0.00
2021,11,06,02,36,0.00
2021,11,06,02,37,0.00
2021,11,06,02,38,0.00
2021,11,06,02,39,0.00
2021,11,06,02,40,0.00
2021,11,06,02,41,0.00
2021,11,06,02,42,0.00
2021,11,06,02,43,0.00
2021,11,06,02,44,0.00
2021,11,06,02,45,0.00
2021,11,06,02,46,0.00
2021,11,06,02,47,0.00
2021,11,06,02,48,0.00
2021,11,06,02,49,0.00
2021,11,06,02,50,0.00
2021,11,06,02,51,0.00
2021,11,06,02,52,0.00
2021,11,06,02,53,0.00
2021,11,06,02,54,0.00
2021,11,06,02,55,0.00
2021,11,06,02,56,0.00
2021,11,06,02,57,0.00
2021,11,06,02,58,0.00
2021,11,06,02,59,0.00
2021,11,06,03,00,0.00
2021,11,06,03,01,0.00
2021,11,06,03,02,0.00
2021,11,06,03,03,0.00
2021,11,06,03,04,0.00
2021,11,06,03,05,0.00
2021,11,06,03,06,0.00
2021,11,06,03,07,0.00
2021,11,06,03,08,0.00
2021,11,06,03,09,0.00
2021,11,06,03,10,0.00
2021,11,06,03,11,0.00
2021,11,06,03,12,0.00
2021,11,06,03,13,0.00
2021,11,06,03,14,0.00
2021,11,06,03,15,0.00
2021,11,06,03,16,0.00
2021,11,06,03,17,0.00
2021,11,06,03,18,0.00
2021,11,06,03,19,0.00
2021,11,06,03,20,0.00
2021,11,06,03,21,0.00
2021,11,06,03,22,0.00
2021,11,06,03,23,0.00
2021,11,06,03,24,0.00
2021,11,06,03,25,0.00
2021,11,06,03,26,0.00
2021,11,06,03,27,0.00
2021,11,06,03,28,0.00
2021,11,06,03,29,0.00
2021,11,06,03,30,0.00
2021,11,06,03,31,0.00
2021,11,06,03,32,0.00
2021,11,06,03,33,0.00
2021,11,06,03,34,0.00
2021,11,06,03,35,0.00
2021,11,06,03,36,0.00
2021,11,06,03,37,0.00
2021,11,06,03,38,0.00
2021,11,06,03,39,0.00
2021,11,06,03,40,0.00
2021,11,06,03,41,0.00
2021,11,06,03,42,0.00
2021,11,06,03,43,0.00
2021,11,06,03,44,0.00
2021,11,06,03,45,0.00
2021,11,06,03,46,0.00
2021,11,06,03,47,0.00
2021,11,06,03,48,0.00
2021,11,06,03,49,0.00
2021,11,06,03,50,0.00
2021,11,06,03,51,0.00
2021,11,06,03,52,0.00
2021,11,06,03,53,0.00
2021,11,06,03,54,0.00
2021,11,06,03,55,0.00
2021,11,06,03,56,0.00
2021,11,06,03,57,0.00
2021,11,06,03,58,0.00
2021,11,06,03,59,0.00
2021,11,06,04,00,0.00
2021,11,06,04,01,0.00
2021,11,06,04,02,0.00
2021,11,06,04,03,0.00
2021,11,06,04,04,0.00
2021,11,06,04,05,0.00
2021,11,06,04,06,0.00
2021,11,06,04,07,0.00
2021,11,06,04,08,0.00
2021,11,06,04,09,0.00
2021,11,06,04,10,0.00
2021,11,06,04,11,0.00
2021,11,06,04,12,0.00
2021,11,06,04,13,0.00
2021,11,06,04,14,0.00
2021,11,06,04,15,0.00
2021,11,06,04,16,0.00
2021,11,06,04,17,0.00
2021,11,06,04,18,0.00
2021,11,06,04,19,0.00
2021,11,06,04,20,0.00
2021,11,06,04,21,0.00
2021,11,06,04,22,0.00
2021,11,06,04,23,0.00
2021,11,06,04,24,0.00
2021,11,06,04,25,0.00
2021,11,06,04,26,0.00
2021,11,06,04,27,0.00
2021,11,06,04,28,0.00
2021,11,06,04,29,0.00
2021,11,06,04,30,0.00
2021,11,06,04,31,0.00
2021,11,06,04,32,0.00
2021,11,06,04,33,0.00
2021,11,06,04,34,0.00
2021,11,06,04,35,0.00
2021,11,06,04,36,0.00
2021,11,06,04,37,0.00
2021,11,06,04,38,0.00
2021,11,06,04,39,0.00
2021,11,06,04,40,0.00
2021,11,06,04,41,0.00
2021,11,06,04,42,0.00
2021,11,06,04,43,0.00
2021,11,06,04,44,0.00
2021,11,06,04,45,0.00
2021,11,06,04,46,0.00
2021,11,06,04,47,0.00
2021,11,06,04,48,0.00
2021,11,06,04,49,0.00
2021,11,06,04,50,0.00
2021,11,06,04,51,0.00
2021,11,06,04,52,0.00
2021,11,06,04,53,0.00
2021,11,06,04,54,0.00
2021,11,06,04,55,0.00
2021,11,06,04,56,0.00
2021,11,06,04,57,0.00
2021,11,06,04,58,0.00
2021,11,06,04,59,0.00
2021,11,06,05,00,0.00
2021,11,06,05,01,0.00
2021,11,06,05,02,0.00
2021,11,06,05,03,0.00
2021,11,06,05,04,0.00
2021,11,06,05,05,0.00
2021,11,06,05,06,0.00
2021,11,06,05,07,0.00
2021,11,06,05,08,0.00
2021,11,06,05,09,0.00
2021,11,06,05,10,0.00
2021,11,06,05,11,0.00
2021,11,06,05,12,0.00
2021,11,06,05,13,0.00
2021,11,06,05,14,0.00
2021,11,06,05,15,0.00
2021,11,06,05,16,0.00
2021,11,06,05,17,0.00
2021,11,06,05,18,0.00
2021,11,06,05,19,0.00
2021,11,06,05,20,0.00
2021,11,06,05,21,0.00
2021,11,06,05,22,0.00
2021,11,06,05,23,0.00
2021,11,06,05,24,0.00
2021,11,06,05,25,0.00
2021,11,06,05,26,0.00
2021,11,06,05,27,0.00
2021,11,06,05,28,0.00
2021,11,06,05,29,0.00
2021,11,06,05,30,0.00
2021,11,06,05,31,0.00
2021,11,06,05,32,0.00
2021,11,06,05,33,0.00
2021,11,06,05,34,0.00
2021,11,06,05,35,0.00
2021,11,06,05,36,0.00
2021,11,06,05,37,0.00
2021,11,06,05,38,0.00
2021,11,06,05,39,0.00
2021,11,06,05,40,0.00
2021,11,06,05,41,0.00
2021,11,06,05,42,0.00
2021,11,06,05,43,0.00
2021,11,06,05,44,0.00
2021,11,06,05,45,0.00
2021,11,06,05,46,0.00
2021,11,06,05,47,0.00
2021,11,06,05,48,0.00
2021,11,06,05,49,0.00
2021,11,06,05,50,0.00
2021,11,06,05,51,0.00
2021,11,06,05,52,0.00
2021,11,06,05,53,0.00
2021,11,06,05,54,0.00
2021,11,06,05,55,0.00
2021,11,06,05,56,0.00
2021,11,06,05,57,0.00
2021,11,06,05,58,0.00
2021,11,06,05,59,0.00
2021,11,06,06,00,0.00
2021,11,06,06,01,0.00
2021,11,06,06,02,0.00
2021,11,06,06,03,0.00
2021,11,06,06,04,0.00
2021,11,06,06,05,0.00
2021,11,06,06,06,0.00
2021,11,06,06,07,0.00
2021,11,06,06,08,0.00
2021,11,06,06,09,0.00
2021,11,06,06,10,0.00
2021,11,06,06,11,0.00
2021,11,06,06,12,0.00
2021,11,06,06,13,0.00
2021,11,06,06,14,0.00
2021,11,06,06,15,0.00
2021,11,06,06,16,0.00
2021,11,06,06,17,0.00
2021,11,06,06,18,0.00
2021,11,06,06,19,0.00
2021,11,06,06,20,0.00
2021,11,06,06,21,0.00
2021,11,06,06,22,0.00
2021,11,06,06,23,0.00
2021,11,06,06,24,0.00
2021,11,06,06,25,0.00
2021,11,06,06,26,0.00
2021,11,06,06,27,0.00
2021,11,06,06,28,0.00
2021,11,06,06,29,0.00
2021,11,06,06,30,0.00
2021,11,06,06,31,0.00
2021,11,06,06,32,0.00
2021,11,06,06,33,0.00
2021,11,06,06,34,0.00
2021,11,06,06,35,0.00
2021,11,06,06,36,0.00
2021,11,06,06,37,0.00
2021,11,06,06,38,0.00
2021,11,06,06,39,0.00
2021,11,06,06,40,0.00
2021,11,06,06,41,0.00
2021,11,06,06,42,0.00
2021,11,06,06,43,0.00
2021,11,06,06,44,0.00
2021,11,06,06,45,0.00
2021,11,06,06,46,0.00
2021,11,06,06,47,0.00
2021,11,06,06,48,0.00
2021,11,06,06,49,0.00
2021,11,06,06,50,0.00
2021,11,06,06,51,0.00
2021,11,06,06,52,0.00
2021,11,06,06,53,0.00
2021,11,06,06,54,0.00
2021,11,06,06,55,0.00
2021,11,06,06,56,0.00
2021,11,06,06,57,0.00
2021,11,06,06,58,0.00
2021,11,06,06,59,0.00
2021,11,06,07,00,0.00
2021,11,06,07,01,0.00
2021,11,06,07,02,0.00
2021,11,06,07,03,0.00
2021,11,06,07,04,0.00
2021,11,06,07,05,0.00
2021,11,06,07,06,0.00
2021,11,06,07,07,0.00
2021,11,06,07,08,0.00
2021,11,06,07,09,0.00
2021,11,06,07,10,0.00
2021,11,06,07,11,0.00
2021,11,06,07,12,0.00
2021,11,06,07,13,0.00
2021,11,06,07,14,0.00
2021,11,06,07,15,0.00
2021,11,06,07,16,0.00
2021,11,06,07,17,0.00
2021,11,06,07,18,0.00
2021,11,06,07,19,0.00
2021,11,06,07,20,0.00
2021,11,06,07,21,0.00
2021,11,06,07,22,0.00
2021,11,06,07,23,0.00
2021,11,06,07,24,0.00
2021,11,06,07,25,0.00
2021,11,06,07,26,0.00
2021,11,06,07,27,0.00
2021,11,06,07,28,0.00
2021,11,06,07,29,0.00
2021,11,06,07,30,0.00
2021,11,06,07,31,0.00
2021,11,06,07,32,0.00
2021,11,06,07,33,0.00
2021,11,06,07,34,0.00
2021,11,06,07,35,0.00
2021,11,06,07,36,0.00
2021,11,06,07,37,0.00
2021,11,06,07,38,0.00
2021,11,06,07,39,0.00
2021,11,06,07,40,0.00
2021,11,06,07,41,0.00
2021,11,06,07,42,0.00
2021,11,06,07,43,0.00
2021,11,06,07,44,0.00
2021,11,06,07,45,0.00
2021,11,06,07,46,0.00
2021,11,06,07,47,0.00
2021,11,06,07,48,0.00
2021,11,06,07,49,0.00
2021,11,06,07,50,0.00
2021,11,06,07,51,0.00
2021,11,06,07,52,0.00
2021,11,06,07,53,0.00
2021,11,06,07,54,0.00
2021,11,06,07,55,0.00
2021,11,06,07,56,0.00
2021,11,06,07,57,0.00
2021,11,06,07,58,0.00
2021,11,06,07,59,0.00
2021,11,06,08,00,0.00
2021,11,06,08,01,0.00
2021,11,06,08,02,0.00
2021,11,06,08,03,0.00
2021,11,06,08,04,0.00
2021,11,06,08,05,0.00
2021,11,06,08,06,0.00
2021,11,06,08,07,0.00
2021,11,06,08,08,0.00
2021,11,06,08,09,0.00
2021,11,06,08,10,0.00
2021,11,06,08,11,0.00
2021,11,06,08,12,0.00
2021,11,06,08,13,0.00
2021,11,06,08,14,0.00
2021,11,06,08,15,0.00
2021,11,06,08,16,0.00
2021,11,06,08,17,0.00
2021,11,06,08,18,0.00
2021,11,06,08,19,0.00
2021,11,06,08,20,2.60
2021,11,06,08,21,5.00
2021,11,06,08,22,5.00
2021,11,06,08,23,5.00
2021,11,06,08,24,5.00
2021,11,06,08,25,5.00
2021,11,06,08,26,5.00
2021,11,06,08,27,5.00
2021,11,06,08,28,6.30
2021,11,06,08,29,7.00
2021,11,06,08,30,7.00
2021,11,06,08,31,7.00
2021,11,06,08,32,6.50
2021,11,06,08,33,5.00
2021,11,06,08,34,5.00
2021,11,06,08,35,5.00
2021,11,06,08,36,5.00
2021,11,06,08,37,5.00
2021,11,06,08,38,5.00
2021,11,06,08,39,5.00
2021,11,06,08,40,5.80
2021,11,06,08,41,7.00
2021,11,06,08,42,7.00
2021,11,06,08,43,7.00
2021,11,06,08,44,7.00
2021,11,06,08,45,7.00
2021,11,06,08,46,7.00
2021,11,06,08,47,7.80
2021,11,06,08,48,9.00
2021,11,06,08,49,9.00
2021,11,06,08,50,9.00
2021,11,06,08,51,9.00
2021,11,06,08,52,11.00
2021,11,06,08,53,11.20
2021,11,06,08,54,12.00
2021,11,06,08,55,13.10
2021,11,06,08,56,14.00
2021,11,06,08,57,15.50
2021,11,06,08,58,16.00
2021,11,06,08,59,15.80
2021,11,06,09,00,14.00
2021,11,06,09,01,14.00
2021,11,06,09,02,14.00
2021,11,06,09,03,12.70
2021,11,06,09,04,12.00
2021,11,06,09,05,12.00
2021,11,06,09,06,12.20
2021,11,06,09,07,14.00
2021,11,06,09,08,14.00
2021,11,06,09,09,14.00
2021,11,06,09,10,15.20
2021,11,06,09,11,16.00
2021,11,06,09,12,16.00
2021,11,06,09,13,16.00
2021,11,06,09,14,16.50
2021,11,06,09,15,18.00
2021,11,06,09,16,18.00
2021,11,06,09,17,18.00
2021,11,06,09,18,20.20
2021,11,06,09,19,21.00
2021,11,06,09,20,21.20
2021,11,06,09,21,23.00
2021,11,06,09,22,23.00
2021,11,06,09,23,23.00
2021,11,06,09,24,23.00
2021,11,06,09,25,23.00
2021,11,06,09,26,21.20
2021,11,06,09,27,21.30
2021,11,06,09,28,23.00
2021,11,06,09,29,23.00
2021,11,06,09,30,24.00
2021,11,06,09,31,25.00
2021,11,06,09,32,23.50
2021,11,06,09,33,23.00
2021,11,06,09,34,23.30
2021,11,06,09,35,25.00
2021,11,06,09,36,25.00
2021,11,06,09,37,25.00
2021,11,06,09,38,25.00
2021,11,06,09,39,25.00
2021,11,06,09,40,23.20
2021,11,06,09,41,23.00
2021,11,06,09,42,22.50
2021,11,06,09,43,21.00
2021,11,06,09,44,20.00
2021,11,06,09,45,19.00
2021,11,06,09,46,19.00
2021,11,06,09,47,19.00
2021,11,06,09,48,19.00
2021,11,06,09,49,19.00
2021,11,06,09,50,19.00
2021,11,06,09,51,19.00
2021,11,06,09,52,19.00
2021,11,06,09,53,19.00
2021,11,06,09,54,22.50
2021,11,06,09,55,23.00
2021,11,06,09,56,23.00
2021,11,06,09,57,23.00
2021,11,06,09,58,23.00
2021,11,06,09,59,23.00
2021,11,06,10,00,23.00
2021,11,06,10,01,23.00
2021,11,06,10,02,23.00
2021,11,06,10,03,23.00
2021,11,06,10,04,23.00
2021,11,06,10,05,23.00
2021,11,06,10,06,23.00
2021,11,06,10,07,24.50
2021,11,06,10,08,25.00
2021,11,06,10,09,25.00
2021,11,06,10,10,25.30
2021,11,06,10,11,26.00
2021,11,06,10,12,27.00
2021,11,06,10,13,28.00
2021,11,06,10,14,28.00
2021,11,06,10,15,31.50
2021,11,06,10,16,33.00
2021,11,06,10,17,33.00
2021,11,06,10,18,33.80
2021,11,06,10,19,35.00
2021,11,06,10,20,35.00
2021,11,06,10,21,35.00
2021,11,06,10,22,35.10
2021,11,06,10,23,37.00
2021,11,06,10,24,37.50
2021,11,06,10,25,39.00
2021,11,06,10,26,39.00
2021,11,06,10,27,41.00
2021,11,06,10,28,43.50
2021,11,06,10,29,44.00
2021,11,06,10,30,44.00
2021,11,06,10,31,45.80
2021,11,06,10,32,51.80
2021,11,06,10,33,53.00
2021,11,06,10,34,53.00
2021,11,06,10,35,53.00
2021,11,06,10,36,53.90
2021,11,06,10,37,54.00
2021,11,06,10,38,53.70
2021,11,06,10,39,53.00
2021,11,06,10,40,53.00
2021,11,06,10,41,53.00
2021,11,06,10,42,51.50
2021,11,06,10,43,51.00
2021,11,06,10,44,49.00
2021,11,06,10,45,49.00
2021,11,06,10,46,49.00
2021,11,06,10,47,49.00
2021,11,06,10,48,47.00
2021,11,06,10,49,46.00
2021,11,06,10,50,46.00
2021,11,06,10,51,44.00
2021,11,06,10,52,44.00
2021,11,06,10,53,44.00
2021,11,06,10,54,44.00
2021,11,06,10,55,44.00
2021,11,06,10,56,44.00
2021,11,06,10,57,42.20
2021,11,06,10,58,42.00
2021,11,06,10,59,41.50
2021,11,06,11,00,39.60
2021,11,06,11,01,39.00
2021,11,06,11,02,39.00
2021,11,06,11,03,37.50
2021,11,06,11,04,37.00
2021,11,06,11,05,36.80
2021,11,06,11,06,35.00
2021,11,06,11,07,35.00
2021,11,06,11,08,35.00
2021,11,06,11,09,36.20
2021,11,06,11,10,37.00
2021,11,06,11,11,37.00
2021,11,06,11,12,37.00
2021,11,06,11,13,37.00
2021,11,06,11,14,37.00
2021,11,06,11,15,37.00
2021,11,06,11,16,37.00
2021,11,06,11,17,37.00
2021,11,06,11,18,37.10
2021,11,06,11,19,38.70
2021,11,06,11,20,37.00
2021,11,06,11,21,37.00
2021,11,06,11,22,37.00
2021,11,06,11,23,35.70
2021,11,06,11,24,35.00
2021,11,06,11,25,35.00
2021,11,06,11,26,35.00
2021,11,06,11,27,35.00
2021,11,06,11,28,35.00
2021,11,06,11,29,35.00
2021,11,06,11,30,35.00
2021,11,06,11,31,35.00
2021,11,06,11,32,35.00
2021,11,06,11,33,37.00
2021,11,06,11,34,37.00
2021,11,06,11,35,37.00
2021,11,06,11,36,37.00
2021,11,06,11,37,37.00
2021,11,06,11,38,39.20
2021,11,06,11,39,40.00
2021,11,06,11,40,44.00
2021,11,06,11,41,44.50
2021,11,06,11,42,46.00
2021,11,06,11,43,47.50
2021,11,06,11,44,49.00
2021,11,06,11,45,50.50
2021,11,06,11,46,52.80
2021,11,06,11,47,54.00
2021,11,06,11,48,54.50
2021,11,06,11,49,56.70
2021,11,06,11,50,59.10
2021,11,06,11,51,60.00
2021,11,06,11,52,60.00
2021,11,06,11,53,60.00
2021,11,06,11,54,60.00
2021,11,06,11,55,62.30
2021,11,06,11,56,72.40
2021,11,06,11,57,82.70
2021,11,06,11,58,88.00
2021,11,06,11,59,108.00
2021,11,06,12,00,126.40
2021,11,06,12,01,141.00
2021,11,06,12,02,141.00
2021,11,06,12,03,152.10
2021,11,06,12,04,176.00
2021,11,06,12,05,185.30
2021,11,06,12,06,188.00
2021,11,06,12,07,188.00
2021,11,06,12,08,192.90
2021,11,06,12,09,192.80
2021,11,06,12,10,194.20
2021,11,06,12,11,196.60
2021,11,06,12,12,222.20
2021,11,06,12,13,234.00
2021,11,06,12,14,234.00
2021,11,06,12,15,234.00
2021,11,06,12,16,234.00
2021,11,06,12,17,234.00
2021,11,06,12,18,234.00
2021,11,06,12,19,234.00
2021,11,06,12,20,234.00
2021,11,06,12,21,234.00
2021,11,06,12,22,234.00
2021,11,06,12,23,234.00
2021,11,06,12,24,234.00
2021,11,06,12,25,234.00
2021,11,06,12,26,234.00
2021,11,06,12,27,234.00
2021,11,06,12,28,234.00
2021,11,06,12,29,228.70
2021,11,06,12,30,185.30
2021,11,06,12,31,176.50
2021,11,06,12,32,174.00
2021,11,06,12,33,165.40
2021,11,06,12,34,146.70
2021,11,06,12,35,131.40
2021,11,06,12,36,123.00
2021,11,06,12,37,123.00
2021,11,06,12,38,123.00
2021,11,06,12,39,132.50
2021,11,06,12,40,142.00
2021,11,06,12,41,135.90
2021,11,06,12,42,138.30
2021,11,06,12,43,141.90
2021,11,06,12,44,161.80
2021,11,06,12,45,172.00
2021,11,06,12,46,172.00
2021,11,06,12,47,278.50
2021,11,06,12,48,345.00
2021,11,06,12,49,380.40
2021,11,06,12,50,480.00
2021,11,06,12,51,480.00
2021,11,06,12,52,369.60
2021,11,06,12,53,209.00
2021,11,06,12,54,225.00
2021,11,06,12,55,288.80
2021,11,06,12,56,308.00
2021,11,06,12,57,467.00
2021,11,06,12,58,475.00
2021,11,06,12,59,475.00
2021,11,06,13,00,475.00
2021,11,06,13,01,475.00
2021,11,06,13,02,470.40
2021,11,06,13,03,469.00
2021,11,06,13,04,462.00
2021,11,06,13,05,466.80
2021,11,06,13,06,480.00
2021,11,06,13,07,495.00
2021,11,06,13,08,510.00
2021,11,06,13,09,510.00
2021,11,06,13,10,496.40
2021,11,06,13,11,485.00
2021,11,06,13,12,485.00
2021,11,06,13,13,466.90
2021,11,06,13,14,434.40
2021,11,06,13,15,431.00
2021,11,06,13,16,431.80
2021,11,06,13,17,432.00
2021,11,06,13,18,436.20
2021,11,06,13,19,438.00
2021,11,06,13,20,436.50
2021,11,06,13,21,431.40
2021,11,06,13,22,429.00
2021,11,06,13,23,429.00
2021,11,06,13,24,429.00
2021,11,06,13,25,429.80
2021,11,06,13,26,436.00
2021,11,06,13,27,436.00
2021,11,06,13,28,462.50
2021,11,06,13,29,516.70
2021,11,06,13,30,533.00
2021,11,06,13,31,533.00
2021,11,06,13,32,496.40
2021,11,06,13,33,206.30
2021,11,06,13,34,174.00
2021,11,06,13,35,174.00
2021,11,06,13,36,174.00
2021,11,06,13,37,109.40
2021,11,06,13,38,90.00
2021,11,06,13,39,108.00
2021,11,06,13,40,102.50
2021,11,06,13,41,120.20
2021,11,06,13,42,135.00
2021,11,06,13,43,135.00
2021,11,06,13,44,135.00
2021,11,06,13,45,135.00
2021,11,06,13,46,147.60
2021,11,06,13,47,220.00
2021,11,06,13,48,220.00
2021,11,06,13,49,220.00
2021,11,06,13,50,384.30
2021,11,06,13,51,487.00
2021,11,06,13,52,470.20
2021,11,06,13,53,469.80
2021,11,06,13,54,469.10
2021,11,06,13,55,474.80
2021,11,06,13,56,441.00
2021,11,06,13,57,474.80
2021,11,06,13,58,506.40
2021,11,06,13,59,495.80
2021,11,06,14,00,493.50
2021,11,06,14,01,436.00
2021,11,06,14,02,438.70
2021,11,06,14,03,430.50
2021,11,06,14,04,422.40
2021,11,06,14,05,425.00
2021,11,06,14,06,283.50
2021,11,06,14,07,274.20
2021,11,06,14,08,332.60
2021,11,06,14,09,314.00
2021,11,06,14,10,297.50
2021,11,06,14,11,234.20
2021,11,06,14,12,175.40
2021,11,06,14,13,146.10
2021,11,06,14,14,186.60
2021,11,06,14,15,162.70
2021,11,06,14,16,151.00
2021,11,06,14,17,290.20
2021,11,06,14,18,446.70
2021,11,06,14,19,456.90
2021,11,06,14,20,467.80
2021,11,06,14,21,461.00
2021,11,06,14,22,417.20
2021,11,06,14,23,268.20
2021,11,06,14,24,278.50
2021,11,06,14,25,363.90
2021,11,06,14,26,316.10
2021,11,06,14,27,227.00
2021,11,06,14,28,223.00
2021,11,06,14,29,223.00
2021,11,06,14,30,223.00
2021,11,06,14,31,167.00
2021,11,06,14,32,114.10
2021,11,06,14,33,114.50
2021,11,06,14,34,114.00
2021,11,06,14,35,139.00
2021,11,06,14,36,139.00
2021,11,06,14,37,157.10
2021,11,06,14,38,202.00
2021,11,06,14,39,253.30
2021,11,06,14,40,243.20
2021,11,06,14,41,209.20
2021,11,06,14,42,167.00
2021,11,06,14,43,177.80
2021,11,06,14,44,188.20
2021,11,06,14,45,154.50
2021,11,06,14,46,121.40
2021,11,06,14,47,90.20
2021,11,06,14,48,79.80
2021,11,06,14,49,76.00
2021,11,06,14,50,77.20
2021,11,06,14,51,81.00
2021,11,06,14,52,81.00
2021,11,06,14,53,81.00
2021,11,06,14,54,124.10
2021,11,06,14,55,159.10
2021,11,06,14,56,169.00
2021,11,06,14,57,165.50
2021,11,06,14,58,148.70
2021,11,06,14,59,137.00
2021,11,06,15,00,137.00
2021,11,06,15,01,174.70
2021,11,06,15,02,260.10
2021,11,06,15,03,239.80
2021,11,06,15,04,315.20
2021,11,06,15,05,385.30
2021,11,06,15,06,367.10
2021,11,06,15,07,311.20
2021,11,06,15,08,297.00
2021,11,06,15,09,266.00
2021,11,06,15,10,257.30
2021,11,06,15,11,223.20
2021,11,06,15,12,229.00
2021,11,06,15,13,229.00
2021,11,06,15,14,229.00
2021,11,06,15,15,289.80
2021,11,06,15,16,306.20
2021,11,06,15,17,296.30
2021,11,06,15,18,308.30
2021,11,06,15,19,315.40
2021,11,06,15,20,316.00
2021,11,06,15,21,316.00
2021,11,06,15,22,316.00
2021,11,06,15,23,322.20
2021,11,06,15,24,315.60
2021,11,06,15,25,320.00
2021,11,06,15,26,315.80
2021,11,06,15,27,309.00
2021,11,06,15,28,313.40
2021,11,06,15,29,316.00
2021,11,06,15,30,316.00
2021,11,06,15,31,304.20
2021,11,06,15,32,209.60
2021,11,06,15,33,166.50
2021,11,06,15,34,113.20
2021,11,06,15,35,99.80
2021,11,06,15,36,95.00
2021,11,06,15,37,91.50
2021,11,06,15,38,101.20
2021,11,06,15,39,95.70
2021,11,06,15,40,98.00
2021,11,06,15,41,95.50
2021,11,06,15,42,87.50
2021,11,06,15,43,81.80
2021,11,06,15,44,89.80
2021,11,06,15,45,106.30
2021,11,06,15,46,111.70
2021,11,06,15,47,101.90
2021,11,06,15,48,130.00
2021,11,06,15,49,126.00
2021,11,06,15,50,109.00
2021,11,06,15,51,113.40
2021,11,06,15,52,104.00
2021,11,06,15,53,103.10
2021,11,06,15,54,100.00
2021,11,06,15,55,93.00
2021,11,06,15,56,87.20
2021,11,06,15,57,93.10
2021,11,06,15,58,95.00
2021,11,06,15,59,102.20
2021,11,06,16,00,138.00
2021,11,06,16,01,127.00
2021,11,06,16,02,127.00
2021,11,06,16,03,133.20
2021,11,06,16,04,150.30
2021,11,06,16,05,155.00
2021,11,06,16,06,155.00
2021,11,06,16,07,144.50
2021,11,06,16,08,111.80
2021,11,06,16,09,99.00
2021,11,06,16,10,93.00
2021,11,06,16,11,93.00
2021,11,06,16,12,93.00
2021,11,06,16,13,78.20
2021,11,06,16,14,90.00
2021,11,06,16,15,90.00
2021,11,06,16,16,90.00
2021,11,06,16,17,103.20
2021,11,06,16,18,102.50
2021,11,06,16,19,85.80
2021,11,06,16,20,76.00
2021,11,06,16,21,90.00
2021,11,06,16,22,130.00
2021,11,06,16,23,130.00
2021,11,06,16,24,113.70
2021,11,06,16,25,101.20
2021,11,06,16,26,100.00
2021,11,06,16,27,135.00
2021,11,06,16,28,135.00
2021,11,06,16,29,135.00
2021,11,06,16,30,135.00
2021,11,06,16,31,122.10
2021,11,06,16,32,99.90
2021,11,06,16,33,95.00
2021,11,06,16,34,155.00
2021,11,06,16,35,155.00
2021,11,06,16,36,144.60
2021,11,06,16,37,128.00
2021,11,06,16,38,127.40
2021,11,06,16,39,122.40
2021,11,06,16,40,120.10
2021,11,06,16,41,121.00
2021,11,06,16,42,121.00
2021,11,06,16,43,115.10
2021,11,06,16,44,93.00
2021,11,06,16,45,81.00
2021,11,06,16,46,81.00
2021,11,06,16,47,76.60
2021,11,06,16,48,72.00
2021,11,06,16,49,49.00
2021,11,06,16,50,49.00
2021,11,06,16,51,49.00
2021,11,06,16,52,37.30
2021,11,06,16,53,30.00
2021,11,06,16,54,32.70
2021,11,06,16,55,39.00
2021,11,06,16,56,43.60
2021,11,06,16,57,61.40
2021,11,06,16,58,66.50
2021,11,06,16,59,61.20
2021,11,06,17,00,58.50
2021,11,06,17,01,61.50
2021,11,06,17,02,60.30
2021,11,06,17,03,43.50
2021,11,06,17,04,31.20
2021,11,06,17,05,29.00
2021,11,06,17,06,26.70
2021,11,06,17,07,25.20
2021,11,06,17,08,23.20
2021,11,06,17,09,21.00
2021,11,06,17,10,21.00
2021,11,06,17,11,21.00
2021,11,06,17,12,21.00
2021,11,06,17,13,21.00
2021,11,06,17,14,21.00
2021,11,06,17,15,21.00
2021,11,06,17,16,20.80
2021,11,06,17,17,18.80
2021,11,06,17,18,17.30
2021,11,06,17,19,16.00
2021,11,06,17,20,16.00
2021,11,06,17,21,16.00
2021,11,06,17,22,16.00
2021,11,06,17,23,16.00
2021,11,06,17,24,16.00
2021,11,06,17,25,15.20
2021,11,06,17,26,14.00
2021,11,06,17,27,12.80
2021,11,06,17,28,12.00
2021,11,06,17,29,11.10
2021,11,06,17,30,10.80
2021,11,06,17,31,8.50